Hourly Data Report for October 06, 2017

All times are specified in Local Standard Time (LST). Add 1 hour to adjust for Daylight Saving Time where and when it is observed.

WOODSTOCK NEWBRIDGE
NEW BRUNSWICK

46°09'08.000" N
67°32'34.000" W
154.00 m
8105603
71606
EWD

Download Data

Hourly Data (October 2017)
Hourly Data Report for October 6, 2017
Temp Definition
°C
Dew Point Temp Definition
°C
Rel Hum Definition
%
Wind Dir Definition
10's deg

Wind Spd Definition
km/h
Visibility Definition
km
Stn Press Definition
kPa
Hmdx Definition


Wind Chill Definition


Weather Definition


TIME
00:00 14.6 6.8 59 21 7   99.53     LegendNANA
01:00 13.6 6.9 64 23 8   99.58     LegendNANA
02:00 12.7 6.5 66 25 7   99.59     LegendNANA
03:00 12.6 4.9 59 26 15   99.62     LegendNANA
04:00 10.7 5.1 68 24 7   99.66     LegendNANA
05:00 10.0 5.0 71 24 5   99.68     LegendNANA
06:00 6.3 4.2 86 23 4   99.76     LegendNANA
07:00 7.1 4.8 85 19 6   99.82     LegendNANA
08:00 9.5 5.8 77 19 3   99.87     LegendNANA
09:00 11.8 5.6 66 20 3   99.88     LegendNANA
10:00 14.4 5.5 55 25 12   99.90     LegendNANA
11:00 14.9 5.7 54 27 10   99.89     LegendNANA
12:00 15.5 5.4 51 28 8   99.85     LegendNANA
13:00 15.4 5.6 52 28 10   99.80     LegendNANA
14:00 16.0 6.5 53 24 10   99.79     LegendNANA
15:00 16.2 6.8 53 26 11   99.80     LegendNANA
16:00 15.7 5.6 51 29 9   99.77     LegendNANA
17:00 15.2 5.5 52 26 7   99.79     LegendNANA
18:00 13.1 5.0 58 26 4   99.83     LegendNANA
19:00 8.4 5.0 79 24 3   99.90     LegendNANA
20:00 6.1 4.1 87   0   99.94     LegendNANA
21:00 4.8 3.4 91   0   100.03     LegendNANA
22:00 3.8 2.7 93 0 1   100.11     LegendNANA
23:00 3.3 2.7 96   0   100.15     LegendNANA

Notes on Data Quality.

Legend

  • E = Estimated
  • M = Missing
  • NA = Not Available
  • ‡ = Partner data that is not subject to review by the National Climate Archives
Date modified: